[[{"header":{"parameterUnit":"m.s-1","parameterCategory":1,"la1":30.2991,"la2":30.254,"lo1":-89.0895,"lo2":-89.0444,"dy":0.0017,"dx":0.0017,"nx":28,"ny":28,"refTime":"2024-04-22T03:00:00:Z","depth":0,"parameterNumber":2,"parameterNumberName":"U-component_of_WINDS"},"data":[0,0,0,0,0,0,0,0,0,0,0,0,0,0,0,0,0,0,0,0,0,0,0,0,0,0,0,0,0,0,0,0,0,0,0,0,0,0,0,0,0,0,0,0,0,0,0,0,0,0,0,0,0,0,0,0,0,0,-1.4216,-1.4216,0,-1.4269,-1.427,-1.4271,-1.4201,-1.4199,-1.4196,-1.4194,-1.4251,-1.4255,-1.4259,0,0,0,0,0,0,0,0,0,0,0,0,0,-1.4054,-1.4057,-1.4216,-1.4216,-1.4217,-1.4269,-1.427,-1.4271,-1.4202,-1.4198,-1.4195,-1.4193,-1.425,-1.4254,-1.4259,0,0,0,0,0,0,0,0,0,0,0,0,0,-1.4118,-1.4058,-1.4215,-1.4189,-1.4187,-1.4269,-1.427,-1.4271,-1.4202,-1.4198,-1.4195,-1.4191,-1.4248,-1.4254,-1.426,-1.4372,0,0,-1.4277,-1.428,0,0,0,0,0,0,0,0,-1.4114,-1.4124,-1.4192,-1.4191,-1.4189,-1.4225,-1.4234,-1.4305,-1.4203,-1.4196,-1.4194,-1.4189,-1.4245,-1.4251,-1.427,-1.4374,-1.4377,-1.4278,-1.4281,-1.4284,-1.4286,0,0,0,0,0,0,0,-1.411,-1.4121,-1.4237,-1.4193,-1.4191,-1.4174,-1.4179,-1.4247,-1.4242,-1.4197,-1.4192,-1.4199,-1.4244,-1.4264,-1.4271,-1.4378,-1.4278,-1.4283,-1.4287,-1.4289,-1.4577,-1.4581,0,0,0,0,0,0,-1.4108,-1.4118,-1.4235,-1.4238,-1.4141,-1.418,-1.4186,-1.4217,-1.4241,-1.4241,-1.4202,-1.4196,-1.4256,-1.4264,-1.4272,-1.4406,-1.4284,-1.4289,-1.4293,-1.4573,-1.4578,-1.4582,0,0,0,0,0,0,-1.4105,-1.4119,-1.4233,-1.4177,-1.419,-1.4187,-1.4223,-1.422,-1.424,-1.4245,-1.4244,-1.4224,-1.4254,-1.4264,-1.4347,-1.4407,-1.4292,-1.4297,-1.4568,-1.4574,-1.458,-1.4674,0,0,0,0,0,0,-1.4101,-1.4119,-1.4161,-1.4178,-1.4193,-1.4307,-1.4226,-1.4224,-1.4251,-1.4242,-1.4265,-1.4265,-1.4251,-1.4339,-1.4353,-1.4413,-1.4302,-1.4563,-1.4571,-1.4578,-1.4666,-1.4683,-1.4698,0,0,0,0,0,-1.4095,-1.4186,-1.4164,-1.4178,-1.4246,-1.4311,-1.432,-1.4301,-1.4256,-1.4299,-1.4301,-1.4265,-1.4397,-1.4348,-1.4364,-1.4426,-1.4559,-1.4569,-1.4578,-1.4659,-1.468,-1.4697,0,0,0,0,0,0,-1.4177,-1.4188,-1.4163,-1.4262,-1.4286,-1.4299,-1.4353,-1.4324,-1.4362,-1.4353,-1.4328,-1.4334,-1.4423,-1.4432,-1.4377,-1.4536,-1.4471,-1.4484,-1.4527,-1.4547,-1.4563,-1.456,-1.4307,0,0,0,0,0,-1.4206,-1.4258,-1.4264,-1.4351,-1.4364,-1.4356,-1.4384,-1.4367,-1.4392,-1.4402,-1.441,-1.4436,-1.4483,-1.4515,-1.4559,-1.4665,-1.467,-1.4716,-1.4732,-1.4745,-1.4757,-1.4815,-1.4836,-1.4613,-1.4613,-1.4613,0,0,-1.4268,-1.428,-1.4314,-1.4368,-1.4384,-1.4439,-1.4366,-1.4426,-1.4466,-1.4411,-1.4491,-1.4497,-1.4524,-1.462,-1.4662,-1.463,-1.4819,-1.4757,-1.4767,-1.4773,-1.4827,-1.4848,-1.4867,-1.4619,-1.4618,-1.4617,0,0,-1.4409,-1.4423,-1.4497,-1.4514,-1.454,-1.4534,-1.4552,-1.4569,-1.4572,-1.465,-1.461,-1.4657,-1.4739,-1.476,-1.4781,-1.4928,-1.4896,-1.4943,-1.5027,-1.5084,-1.5101,-1.5117,-1.5171,-1.5191,-1.4954,-1.4955,-1.4955,0,-1.4483,-1.4563,-1.4539,-1.4602,-1.4627,-1.4578,-1.4653,-1.4671,-1.4711,-1.4729,-1.4692,-1.4793,-1.4808,-1.4908,-1.4944,-1.4962,-1.4982,-1.4942,-1.51,-1.5116,-1.513,-1.5182,-1.5202,-1.496,-1.496,-1.4959,-1.4958,0,-1.4654,-1.4709,-1.4766,-1.4805,-1.4835,-1.4904,-1.4891,-1.4925,-1.4905,-1.4903,-1.4984,-1.4999,-1.5045,-1.5067,-1.5049,-1.5165,-1.5145,-1.5104,-1.5039,-1.5157,-1.5206,-1.5225,-1.4968,-1.4966,-1.4965,-1.4963,0,0,-1.4851,-1.4873,-1.4895,-1.4912,-1.4936,-1.4979,-1.5045,-1.5089,-1.512,-1.5147,-1.5204,-1.5273,-1.5235,-1.526,-1.5242,-1.5292,-1.5409,-1.5245,-1.5246,-1.5277,-1.554,-1.5573,-1.5596,-1.5386,-1.539,-1.5393,-1.5539,0,-1.4994,-1.5109,-1.5088,-1.5201,-1.5252,-1.5205,-1.5263,-1.5284,-1.5283,-1.5327,-1.5326,-1.5376,-1.5322,-1.5337,-1.5383,-1.5385,-1.5462,-1.5374,-1.544,-1.5443,-1.5438,-1.5621,-1.5655,-1.5792,-1.5557,-1.556,-1.5562,0,-1.5176,-1.521,-1.5328,-1.5343,-1.5364,-1.5417,-1.5456,-1.5497,-1.552,-1.5516,-1.5542,-1.5515,-1.5582,-1.5513,-1.5605,-1.5545,-1.557,-1.5575,-1.558,-1.5588,-1.5512,-1.5636,-1.5835,-1.5857,-1.5591,-1.5589,-1.5587,0,-1.5312,-1.5386,-1.5466,-1.5482,-1.5501,-1.5539,-1.5549,-1.5568,-1.5596,-1.5629,-1.5647,-1.5688,-1.5711,-1.5743,-1.5728,-1.5679,-1.5824,-1.5753,-1.5824,-1.5824,-1.5859,-1.5858,-1.6068,-1.5871,-1.587,-1.587,-1.587,0,-1.5475,-1.5549,-1.5528,-1.5577,-1.5659,-1.5634,-1.5715,-1.5719,-1.5736,-1.5786,-1.5746,-1.5794,-1.577,-1.5816,-1.5804,-1.5882,-1.5892,-1.5892,-1.5889,-1.5898,-1.5898,-1.5916,-1.5908,-1.5875,-1.5874,-1.5873,-1.5872,0,-1.5642,-1.563,-1.5714,-1.5725,-1.5729,-1.5789,-1.5798,-1.5845,-1.5839,-1.5903,-1.5917,-1.5909,-1.5961,-1.5948,-1.6005,-1.5997,-1.6097,-1.608,-1.609,-1.6087,-1.6159,-1.6153,-1.6391,-1.6421,-1.6202,-1.6204,-1.6205,0,-1.5748,-1.5804,-1.582,-1.5851,-1.5863,-1.5912,-1.594,-1.5917,-1.5948,-1.5977,-1.602,-1.6068,-1.6106,-1.6191,-1.6191,-1.6234,-1.6219,-1.6299,-1.6226,-1.6233,-1.6224,-1.6222,-1.6228,-1.6315,-1.6318,-1.632,-1.6321,0,-1.594,-1.5931,-1.5972,-1.6012,-1.6046,-1.6076,-1.6103,-1.613,-1.6108,-1.6145,-1.6197,-1.6226,-1.6283,-1.6332,-1.6371,-1.6381,-1.6349,-1.6344,-1.6363,-1.6374,-1.6379,-1.638,-1.6133,-1.634,-1.6338,-1.6337,-1.6336,-1.6335,-1.6081,-1.6129,-1.6148,-1.6196,-1.6213,-1.6238,-1.6282,-1.6282,-1.6325,-1.637,-1.6353,-1.6413,-1.6433,-1.6482,-1.6497,-1.6544,-1.6514,-1.6541,-1.6548,-1.6556,-1.6566,-1.6368,-1.655,-1.655,-1.6549,-1.6549,-1.6549,0,-1.6273,-1.6282,-1.6326,-1.6364,-1.6401,-1.6365,-1.6392,-1.6426,-1.648,-1.6501,-1.6538,-1.6598,-1.6645,-1.6647,-1.6691,-1.6728,-1.6714,-1.6741,-1.6739,-1.6743,-1.659,-1.657,-1.6751,-1.6751,-1.6751,-1.6751,-1.6751,-1.6751,-1.6377,-1.6457,-1.645,-1.6537,-1.6545,-1.6604,-1.6623,-1.6646,-1.6663,-1.6731,-1.677,-1.677,-1.6784,-1.6828,-1.687,-1.6869,-1.6888,-1.6921,-1.6915,-1.6773,-1.6753,-1.6734,-1.6716,-1.6925,-1.6925,-1.7065,-1.7066,-1.7067]},{"header":{"parameterUnit":"m.s-1","parameterCategory":1,"la1":30.2991,"la2":30.254,"lo1":-89.0895,"lo2":-89.0444,"dy":0.0017,"dx":0.0017,"nx":28,"ny":28,"refTime":"2024-04-22T03:00:00:Z","depth":0,"parameterNumber":3,"parameterNumberName":"V-component_of_WINDS"},"data":[0,0,0,0,0,0,0,0,0,0,0,0,0,0,0,0,0,0,0,0,0,0,0,0,0,0,0,0,0,0,0,0,0,0,0,0,0,0,0,0,0,0,0,0,0,0,0,0,0,0,0,0,0,0,0,0,0,0,-7.0553,-7.0555,0,-7.071,-7.0712,-7.0714,-7.0614,-7.0609,-7.0604,-7.06,-7.0758,-7.0766,-7.0775,0,0,0,0,0,0,0,0,0,0,0,0,0,-7.0165,-7.0172,-7.0553,-7.0555,-7.0557,-7.071,-7.0712,-7.0714,-7.0615,-7.0609,-7.0603,-7.0598,-7.0755,-7.0765,-7.0776,0,0,0,0,0,0,0,0,0,0,0,0,0,-7.0329,-7.0175,-7.0553,-7.0526,-7.0525,-7.0709,-7.0712,-7.0715,-7.0616,-7.0609,-7.0602,-7.0595,-7.0752,-7.0764,-7.0777,-7.0996,0,0,-7.0816,-7.0822,0,0,0,0,0,0,0,0,-7.0319,-7.0343,-7.0528,-7.0528,-7.0528,-7.0635,-7.0633,-7.0809,-7.0618,-7.0581,-7.06,-7.0592,-7.0723,-7.0738,-7.0782,-7.1003,-7.101,-7.0817,-7.0825,-7.0831,-7.0834,0,0,0,0,0,0,0,-7.0308,-7.0336,-7.0615,-7.0531,-7.0531,-7.0505,-7.0521,-7.0666,-7.0689,-7.0584,-7.0577,-7.0597,-7.0721,-7.077,-7.0785,-7.1012,-7.0817,-7.0828,-7.0836,-7.0841,-7.142,-7.1427,0,0,0,0,0,0,-7.0299,-7.0327,-7.061,-7.062,-7.0404,-7.0518,-7.0535,-7.0608,-7.0687,-7.0693,-7.0603,-7.0592,-7.0752,-7.077,-7.079,-7.1052,-7.0831,-7.0843,-7.085,-7.1412,-7.1421,-7.143,0,0,0,0,0,0,-7.0291,-7.0326,-7.0604,-7.0472,-7.0505,-7.0532,-7.0614,-7.0615,-7.0663,-7.0702,-7.0705,-7.0649,-7.0747,-7.0772,-7.0945,-7.1056,-7.0848,-7.086,-7.1403,-7.1415,-7.1425,-7.1576,0,0,0,0,0,0,-7.0281,-7.0323,-7.0408,-7.0474,-7.0513,-7.0758,-7.0621,-7.0623,-7.0686,-7.0673,-7.0746,-7.0751,-7.0743,-7.0927,-7.0958,-7.107,-7.087,-7.1393,-7.1408,-7.1422,-7.1561,-7.1591,-7.1617,0,0,0,0,0,-7.0267,-7.0443,-7.0413,-7.0447,-7.0619,-7.0765,-7.0786,-7.0775,-7.0695,-7.078,-7.0804,-7.0749,-7.1038,-7.0946,-7.098,-7.1097,-7.1386,-7.1404,-7.1421,-7.1549,-7.1585,-7.1616,0,0,0,0,0,0,-7.0388,-7.0452,-7.0418,-7.0621,-7.0688,-7.0747,-7.0854,-7.0814,-7.0904,-7.0888,-7.0869,-7.0886,-7.1067,-7.1099,-7.0994,-7.1312,-7.12,-7.1225,-7.1285,-7.132,-7.1347,-7.1336,-7.0881,0,0,0,0,0,-7.0439,-7.0553,-7.0601,-7.0776,-7.0811,-7.0827,-7.089,-7.0875,-7.0944,-7.0971,-7.1008,-7.1076,-7.1182,-7.1253,-7.1352,-7.1565,-7.1579,-7.1662,-7.169,-7.1712,-7.1734,-7.1849,-7.1886,-7.1486,-7.1486,-7.1486,0,0,-7.0544,-7.0593,-7.0666,-7.0802,-7.0852,-7.097,-7.0852,-7.0981,-7.1068,-7.0991,-7.1157,-7.1187,-7.1261,-7.1455,-7.1542,-7.1486,-7.1848,-7.1734,-7.1752,-7.1762,-7.187,-7.1908,-7.1942,-7.1498,-7.1496,-7.1494,0,0,-7.0796,-7.0845,-7.0995,-7.1048,-7.1126,-7.1135,-7.1171,-7.1237,-7.1254,-7.142,-7.1364,-7.1466,-7.165,-7.1705,-7.1757,-7.2029,-7.1981,-7.2062,-7.2207,-7.2319,-7.235,-7.2378,-7.2475,-7.2511,-7.2084,-7.2084,-7.2084,0,-7.0917,-7.1093,-7.1078,-7.1212,-7.1273,-7.1209,-7.1361,-7.1412,-7.1518,-7.1562,-7.1498,-7.1727,-7.1772,-7.1978,-7.2044,-7.2088,-7.2128,-7.2054,-7.2347,-7.2375,-7.2401,-7.2493,-7.253,-7.2093,-7.2092,-7.2091,-7.209,0,-7.1238,-7.1361,-7.1473,-7.1578,-7.1652,-7.1794,-7.1799,-7.1875,-7.1854,-7.1869,-7.2039,-7.2091,-7.22,-7.2247,-7.2227,-7.245,-7.2414,-7.235,-7.2236,-7.2449,-7.2535,-7.257,-7.2107,-7.2103,-7.2101,-7.2098,0,0,-7.1572,-7.1666,-7.1708,-7.1755,-7.1835,-7.1929,-7.2068,-7.2176,-7.2241,-7.2316,-7.2432,-7.2588,-7.2529,-7.2588,-7.2573,-7.2671,-7.2884,-7.2595,-7.2596,-7.2647,-7.3132,-7.3181,-7.3222,-7.2852,-7.2859,-7.2864,-7.3126,0,-7.1829,-7.2073,-7.2063,-7.229,-7.2403,-7.2343,-7.2464,-7.2526,-7.2544,-7.2641,-7.266,-7.2771,-7.2685,-7.272,-7.2814,-7.2838,-7.2981,-7.2819,-7.2959,-7.2964,-7.2943,-7.3267,-7.3319,-7.3565,-7.316,-7.3166,-7.317,0,-7.2162,-7.225,-7.2489,-7.2552,-7.2599,-7.2708,-7.2805,-7.29,-7.2968,-7.2974,-7.304,-7.3009,-7.3149,-7.3031,-7.3223,-7.3113,-7.3169,-7.3189,-7.3198,-7.3212,-7.3081,-7.329,-7.3642,-7.368,-7.3223,-7.3219,-7.3215,0,-7.2383,-7.2559,-7.2725,-7.2767,-7.2845,-7.2923,-7.2959,-7.3021,-7.3086,-7.317,-7.3212,-7.3311,-7.3366,-7.3443,-7.344,-7.3354,-7.3634,-7.3516,-7.3642,-7.3643,-7.3705,-7.3701,-7.4072,-7.374,-7.374,-7.3739,-7.3738,0,-7.2671,-7.282,-7.2825,-7.2928,-7.3092,-7.3077,-7.324,-7.3268,-7.3323,-7.3429,-7.3382,-7.3482,-7.3471,-7.3571,-7.3569,-7.3728,-7.3753,-7.3761,-7.3759,-7.3766,-7.3765,-7.3803,-7.3786,-7.3749,-7.3747,-7.3745,-7.3743,0,-7.2946,-7.2955,-7.3132,-7.3192,-7.321,-7.3329,-7.3379,-7.3475,-7.3488,-7.3622,-7.3653,-7.3674,-7.379,-7.3793,-7.3926,-7.3924,-7.4118,-7.4097,-7.4096,-7.4092,-7.4218,-7.4207,-7.4627,-7.4682,-7.4314,-7.4318,-7.4321,0,-7.313,-7.3243,-7.3315,-7.3383,-7.3424,-7.3533,-7.36,-7.3589,-7.366,-7.3746,-7.3832,-7.3943,-7.4032,-7.4219,-7.4246,-7.4347,-7.4327,-7.4468,-7.4342,-7.4346,-7.433,-7.4324,-7.4335,-7.4493,-7.4497,-7.45,-7.4503,0,-7.3456,-7.3455,-7.3553,-7.3653,-7.3733,-7.3811,-7.3883,-7.3941,-7.3939,-7.4021,-7.4139,-7.4208,-7.4343,-7.4454,-7.4552,-7.4587,-7.4546,-7.4542,-7.4576,-7.4585,-7.4581,-7.4585,-7.4163,-7.4532,-7.4529,-7.4527,-7.4526,-7.4524,-7.3691,-7.3789,-7.3855,-7.3965,-7.4018,-7.4087,-7.418,-7.4205,-7.4304,-7.4414,-7.4401,-7.4533,-7.4597,-7.4724,-7.4768,-7.487,-7.4821,-7.4872,-7.4884,-7.4897,-7.4911,-7.4564,-7.4888,-7.4887,-7.4886,-7.4885,-7.4885,0,-7.4015,-7.4054,-7.4156,-7.4259,-7.4346,-7.4298,-7.4375,-7.4451,-7.4568,-7.4632,-7.472,-7.4855,-7.4963,-7.4997,-7.5101,-7.5176,-7.5159,-7.5203,-7.5198,-7.5207,-7.4948,-7.4908,-7.5215,-7.5215,-7.5215,-7.5215,-7.5215,-7.5215,-7.4194,-7.4357,-7.4364,-7.4552,-7.4589,-7.4719,-7.4767,-7.4829,-7.488,-7.5034,-7.5123,-7.5145,-7.5197,-7.5304,-7.54,-7.5408,-7.5448,-7.5501,-7.5501,-7.5258,-7.5225,-7.5194,-7.5156,-7.551,-7.551,-7.5751,-7.5753,-7.5755]}]]